ECMWFFLT1_700_rhum_096.txt.gz
RH
24 24 25 27 28 29 29 29 29 29 28 27 26 26 25 23 22 20 20 20 20 22 24 25 24 22 22 23 23 21 21 21 21 21 19 17 15 14 14 16 16 17 19 21 21 20 21 20 20 19 18 17 17 16 16 15 15 15 14 14 14 13 12
28 28 29 30 32 33 33 33 32 32 31 30 29 27 25 23 22 22 23 25 27 29 32 33 32 30 30 32 31 28 27 26 25 25 24 22 20 18 16 16 17 16 15 17 19 19 20 20 20 19 19 19 18 17 17 16 15 15 15 14 14 14 13
32 32 34 36 37 37 37 37 36 35 34 32 30 28 25 23 24 27 30 33 36 38 40 41 39 37 37 38 37 35 33 33 31 30 28 26 24 23 20 19 19 18 15 14 15 16 17 18 19 19 19 19 19 19 18 17 17 16 16 15 14 14 14
35 37 39 41 42 42 41 40 38 37 36 35 32 28 25 27 31 35 38 40 42 43 44 45 43 42 41 41 40 37 36 36 35 34 33 31 29 27 25 23 22 21 19 17 14 13 14 15 16 17 17 17 18 18 18 18 18 17 16 16 16 15 15
39 41 44 45 46 46 45 44 42 41 39 36 32 30 31 35 40 43 44 45 46 46 46 45 44 43 42 42 40 38 37 37 37 37 36 34 33 31 29 27 25 23 21 20 17 13 12 13 13 14 15 16 15 16 17 17 17 18 17 17 16 16 15
43 46 48 50 51 50 49 48 46 44 42 37 33 34 40 45 47 48 48 47 47 47 47 45 44 43 42 41 40 38 38 37 37 37 37 36 35 34 33 31 29 27 25 23 20 16 14 13 12 12 12 13 14 14 15 16 16 16 17 17 16 16 16
48 50 52 54 55 55 54 51 49 48 43 38 37 42 48 51 52 51 49 48 48 47 47 46 44 43 43 43 43 42 42 43 43 43 42 40 39 37 37 35 32 30 29 26 23 20 17 15 13 13 12 11 12 12 12 13 14 15 15 15 14 14 14
52 55 57 60 61 60 59 55 53 51 45 40 43 51 56 56 56 54 51 50 49 48 48 46 45 44 45 48 50 51 53 54 55 57 54 49 48 47 44 41 38 35 33 31 28 23 20 18 16 14 12 11 12 11 11 11 11 12 13 13 12 13 12
58 60 62 65 65 64 62 59 57 53 46 44 49 55 57 57 55 53 51 49 48 46 45 44 44 46 49 56 60 62 65 67 69 72 68 60 60 58 54 51 47 42 38 36 32 27 25 23 20 17 15 13 13 11 10 11 11 10 11 11 11 12 12
63 66 68 69 68 67 65 62 60 55 48 49 56 61 62 60 57 55 54 51 47 44 43 44 47 49 53 57 60 61 65 68 70 75 76 74 73 72 71 70 65 57 51 47 41 35 31 28 23 20 18 16 14 14 12 11 11 9 9 9 10 11 11
68 71 73 73 71 68 65 63 62 56 49 52 61 68 71 69 66 64 64 59 52 47 48 51 53 55 57 58 58 59 60 62 64 67 72 75 78 80 82 82 78 70 65 64 59 49 45 42 32 25 24 20 16 16 15 12 12 11 10 9 8 9 10
73 76 78 76 73 69 66 65 64 57 52 55 62 69 74 76 76 75 70 65 59 56 57 57 57 58 59 59 61 63 64 66 67 67 71 75 79 84 89 91 90 85 79 77 75 68 62 56 45 37 32 27 22 21 19 17 15 12 11 10 9 8 8
77 79 80 77 73 70 67 66 65 58 53 57 63 69 75 79 80 77 70 66 65 65 63 62 61 59 58 60 63 66 69 74 77 80 84 87 87 87 87 88 91 95 96 94 92 87 75 63 58 54 44 37 40 39 30 22 18 15 14 13 10 8 8
81 81 81 77 74 71 67 67 67 59 54 59 64 69 75 77 75 72 70 69 69 68 66 64 64 61 60 63 67 71 76 83 88 91 93 94 92 86 81 81 87 97 104 105 103 102 92 81 80 75 59 54 60 55 38 26 23 24 22 18 14 12 11
82 81 79 77 75 71 67 69 70 62 58 62 68 71 74 74 72 71 72 70 67 66 66 65 66 66 66 69 73 77 86 92 94 95 94 93 91 86 84 87 92 97 102 101 99 101 101 98 97 89 73 66 66 57 43 36 38 42 39 29 19 15 13
83 82 79 77 76 73 67 69 71 65 60 64 70 73 73 71 70 70 69 66 64 65 66 69 71 72 74 77 79 82 91 98 100 99 98 95 91 88 87 85 83 89 99 101 97 96 93 88 88 89 82 72 66 60 52 51 56 57 52 39 25 17 15
84 83 81 78 77 75 68 68 71 65 60 64 72 74 72 71 72 72 69 65 65 67 69 74 78 80 82 81 80 84 92 99 101 100 100 100 97 94 93 87 79 79 85 88 89 92 94 90 87 89 87 81 80 78 75 78 78 68 60 54 41 27 20
84 83 82 79 78 76 70 69 72 67 62 69 75 75 76 80 81 79 75 71 70 72 73 75 77 82 85 84 81 85 94 100 100 99 101 101 99 100 100 97 88 77 68 68 72 76 86 96 99 99 96 94 96 97 96 99 95 82 81 84 70 45 31
85 81 81 81 79 78 74 74 75 69 66 73 77 76 83 92 91 86 83 80 79 78 74 70 71 75 82 86 85 88 96 100 100 100 101 100 100 101 96 86 83 81 80 84 84 77 80 91 98 103 104 101 100 100 100 103 101 94 98 103 87 62 47
86 81 80 81 80 79 78 79 78 71 68 74 77 78 89 98 98 95 93 90 87 80 70 65 66 70 75 80 83 88 96 101 99 100 101 99 100 101 92 83 87 93 96 100 98 90 89 93 93 95 99 100 102 101 97 99 102 99 100 101 90 74 66
87 81 79 80 81 80 80 82 81 73 68 72 76 79 88 100 103 102 101 96 87 77 69 65 65 68 72 74 77 86 97 101 99 100 100 99 100 101 98 97 99 97 95 100 100 92 86 88 91 91 88 89 97 100 94 91 93 93 93 94 90 84 82
86 82 78 77 79 79 77 79 82 77 68 69 73 75 83 96 104 104 102 96 86 79 77 74 69 67 71 76 82 92 100 100 99 101 100 99 102 101 98 99 98 95 95 101 100 93 84 82 87 91 86 80 82 85 81 77 77 77 77 78 78 80 85
86 81 76 74 75 76 75 77 83 81 71 67 70 73 78 90 100 103 103 100 93 91 89 81 72 69 76 86 93 97 99 100 102 103 102 102 104 101 97 98 99 99 101 101 99 98 94 84 79 83 86 83 81 80 79 80 82 84 83 81 79 81 83
86 81 75 72 72 73 74 77 82 83 75 68 69 71 74 81 89 96 101 102 101 103 98 88 82 84 88 92 94 95 99 103 105 104 103 103 104 102 100 102 102 99 100 101 99 99 96 86 78 80 84 85 87 89 92 96 99 98 98 97 93 93 93
87 82 77 74 71 71 74 78 82 83 76 69 68 68 69 72 77 85 95 98 98 100 100 97 97 98 97 94 93 97 101 102 101 101 101 101 100 100 101 102 101 101 102 103 101 99 93 82 73 73 78 84 91 97 98 101 103 99 96 95 95 97 99
89 85 80 75 72 72 75 78 81 82 77 68 64 64 64 65 68 75 84 89 88 88 91 95 98 99 97 94 95 98 97 93 92 95 98 98 97 99 100 97 95 97 97 96 96 98 95 84 73 69 70 80 94 98 93 94 99 94 87 87 92 96 97
92 88 82 77 74 74 74 75 78 82 79 69 60 59 61 60 60 65 72 78 78 77 80 87 91 91 90 88 87 87 87 88 89 92 96 98 98 100 101 96 93 93 92 88 86 85 83 79 77 75 70 75 91 95 86 87 95 94 89 91 97 100 98
93 90 85 78 74 73 72 74 79 84 84 75 61 54 55 54 54 58 65 72 75 74 76 83 86 85 84 82 79 79 82 87 90 92 98 100 99 100 101 96 94 97 99 94 84 77 78 82 87 88 76 70 81 89 84 88 97 99 97 99 100 102 101
90 88 84 79 76 77 77 78 80 85 90 86 71 60 58 58 58 61 66 73 78 79 79 82 83 82 81 77 74 76 81 85 86 91 99 101 99 101 102 98 97 101 103 98 87 83 90 95 97 98 89 78 81 87 86 89 94 95 95 96 97 100 101
94 94 92 88 86 88 87 86 86 88 95 97 85 70 65 65 66 69 71 73 78 82 82 80 81 83 83 79 77 78 81 82 84 90 97 101 101 102 101 99 101 102 99 96 93 94 100 100 96 98 98 92 90 91 89 88 90 89 90 94 98 100 99
100 100 100 97 96 94 92 92 93 93 96 100 92 77 66 62 65 71 72 71 75 83 86 84 83 88 90 87 84 82 80 81 87 93 98 100 102 103 101 100 101 100 94 92 95 98 101 101 97 96 98 98 98 97 95 95 95 93 93 96 100 101 99
100 100 101 100 100 99 96 97 98 97 96 98 96 84 67 57 59 68 70 68 72 82 90 91 90 91 93 89 85 83 80 83 91 97 99 100 101 101 101 100 100 96 91 92 97 98 99 102 100 96 98 103 103 102 102 102 100 98 97 97 101 100 95
102 102 102 101 101 101 100 99 100 101 101 101 102 95 76 59 58 67 68 65 70 80 90 94 93 92 92 89 86 83 80 85 95 100 100 101 101 100 100 100 99 95 93 95 99 99 99 102 98 91 92 100 102 102 103 101 99 101 102 101 103 102 95
104 104 104 104 103 103 102 101 101 103 105 105 104 100 87 68 61 67 69 67 69 75 84 90 91 92 93 92 91 88 83 86 97 103 101 100 101 100 100 100 98 95 95 99 100 99 99 103 100 91 89 95 99 102 103 101 98 100 103 103 104 101 94
101 103 104 105 104 103 104 105 104 103 105 105 101 97 90 78 66 63 67 69 69 72 82 91 92 92 95 96 95 93 89 89 98 104 102 100 101 100 100 100 100 97 97 99 101 100 99 100 102 100 94 89 88 93 99 101 101 100 100 103 103 97 92
98 102 104 105 105 104 103 105 106 103 103 105 103 97 93 86 73 62 60 64 66 69 80 92 95 93 94 97 97 96 94 95 100 104 102 100 100 100 99 100 100 99 98 99 100 101 100 98 100 104 102 93 88 89 91 95 100 100 99 102 100 93 92

ECMWFFLT1_700_rhum_099.txt.gz
RH
33 35 37 38 38 38 38 36 36 37 39 41 43 45 44 43 41 38 36 34 32 31 29 27 25 22 21 22 22 22 25 28 29 32 33 33 34 33 32 34 34 31 21 14 15 15 12 11 12 13 15 19 21 22 22 21 21 20 19 19 18 18 18
37 39 41 41 41 42 41 41 41 41 43 46 48 49 48 46 43 40 38 35 33 32 30 28 25 23 22 25 27 28 31 34 36 39 39 39 39 37 36 38 38 36 30 21 16 17 16 15 15 13 11 13 16 19 21 22 22 21 20 20 19 18 18
41 42 43 43 44 45 45 45 45 46 48 51 54 54 52 49 46 43 40 37 35 33 31 29 26 24 25 29 32 33 36 38 40 41 42 42 42 41 40 40 41 40 36 28 21 18 18 18 19 16 13 13 13 14 17 20 21 22 21 21 20 19 19
44 46 46 47 47 48 48 48 49 51 54 58 60 58 55 52 49 45 42 40 37 35 32 29 27 26 29 34 36 36 37 40 42 44 44 43 43 44 43 43 44 44 42 36 28 21 20 22 22 19 17 16 15 12 13 15 18 21 22 21 21 20 19
46 49 50 51 51 52 52 53 54 57 60 63 65 62 58 54 50 47 45 42 39 36 33 30 28 29 33 37 38 38 41 44 46 47 47 46 45 46 47 47 48 48 48 44 36 27 23 24 25 22 20 20 19 15 13 13 13 16 19 21 21 21 20
48 51 53 55 56 56 56 58 60 63 67 69 68 65 60 56 53 49 46 43 40 37 33 31 32 34 37 40 41 42 46 49 51 52 51 51 50 51 54 54 52 54 56 51 43 35 29 27 27 25 22 22 23 21 17 14 13 12 14 17 19 20 21
49 51 55 57 58 59 61 63 66 70 73 73 71 66 62 58 55 51 48 45 41 37 34 34 36 39 42 44 46 49 52 55 57 59 58 57 57 58 62 62 61 64 65 56 46 39 33 30 31 30 26 24 25 25 21 18 15 13 12 13 15 17 19
49 52 56 59 61 64 66 69 72 76 78 76 73 69 65 61 57 53 49 46 42 38 35 35 39 42 45 48 51 54 58 60 63 66 64 63 66 69 69 69 69 69 68 62 53 44 37 34 33 32 29 27 27 27 23 21 20 17 14 13 12 14 16
52 54 57 61 65 68 71 74 78 81 81 77 74 71 65 61 57 53 50 46 41 37 34 34 39 43 46 50 52 54 58 62 67 71 68 65 70 74 75 76 75 72 68 66 61 52 46 42 38 35 33 30 29 28 25 24 24 20 16 15 13 12 13
54 57 60 64 68 71 75 79 82 83 82 80 78 74 67 61 58 56 52 47 42 37 34 36 41 46 48 49 51 53 56 59 63 67 67 67 69 72 75 78 78 77 77 78 74 66 62 58 47 39 39 34 30 31 30 26 25 22 20 19 15 12 11
55 59 63 66 69 74 80 83 84 84 83 82 82 79 73 67 63 61 55 49 43 38 37 41 47 50 50 52 55 57 59 61 62 64 65 67 70 74 79 82 81 81 85 91 91 85 83 80 62 46 46 44 37 35 33 30 30 27 23 21 18 14 12
54 58 63 68 73 79 83 85 85 84 84 84 82 81 78 73 69 64 57 51 45 42 44 49 51 52 53 57 60 61 62 63 63 66 70 75 81 88 93 96 94 91 91 93 95 91 86 82 71 58 56 57 52 49 48 46 44 36 27 24 22 17 13
52 57 64 70 77 82 84 85 85 84 85 86 83 80 80 77 73 66 58 51 48 48 53 55 54 54 55 59 62 62 65 67 69 74 82 90 97 101 102 102 101 100 99 97 98 95 81 70 68 65 59 60 65 66 61 55 49 43 37 31 26 20 16
51 57 65 73 79 82 83 84 85 83 85 87 84 82 82 80 75 67 58 52 52 55 59 59 59 59 57 58 61 63 70 76 80 85 94 102 106 105 103 104 102 101 102 100 101 102 90 74 71 67 57 58 71 75 67 61 60 58 55 48 39 31 24
50 57 65 75 81 82 82 84 85 83 84 87 86 85 86 83 76 68 59 54 56 60 63 63 63 61 58 57 61 67 75 83 90 95 100 102 101 97 97 98 96 98 101 101 100 102 101 96 92 87 78 76 86 88 81 79 82 80 77 71 59 44 32
49 56 65 75 82 83 82 84 86 83 84 88 89 88 87 83 76 68 60 55 58 61 63 64 64 60 58 60 64 70 77 87 98 102 100 96 91 86 85 82 80 84 90 95 98 99 100 100 98 99 99 95 96 95 89 87 91 91 90 84 70 53 40
48 55 66 77 84 84 82 83 85 83 82 88 92 91 89 84 76 68 60 56 58 60 61 65 65 62 62 64 66 70 77 90 102 103 100 100 95 92 93 87 78 75 76 85 96 100 100 100 96 96 99 98 99 98 95 95 98 97 95 92 86 75 60
46 55 68 79 85 85 82 81 83 82 81 89 96 94 90 86 77 67 60 57 59 62 63 64 64 65 68 69 67 71 80 92 100 101 101 101 99 100 102 94 86 85 82 83 88 91 93 97 99 99 100 100 100 100 99 101 102 101 99 100 100 94 84
47 56 70 82 87 87 84 81 81 81 83 91 98 96 93 89 79 68 63 62 63 66 64 59 59 66 74 76 73 77 86 95 100 101 101 101 101 102 97 89 92 99 94 82 73 69 69 72 75 81 87 92 95 98 102 103 102 100 100 99 96 92 93
48 57 72 84 89 88 87 83 80 80 85 93 97 96 95 92 82 71 67 68 70 67 60 56 61 70 79 80 79 82 90 97 100 101 100 100 101 100 95 94 96 91 80 71 67 65 64 62 59 60 66 73 83 96 101 97 91 89 89 88 84 83 91
49 60 74 86 89 88 87 84 80 80 85 93 98 97 98 95 85 75 74 76 72 64 58 59 67 77 82 82 81 87 93 96 98 101 101 101 101 101 100 98 86 72 70 78 80 78 76 73 70 65 58 59 74 94 100 92 85 84 83 83 81 79 85
50 63 76 85 88 87 85 83 81 80 84 92 97 99 101 99 89 81 82 79 68 60 61 66 73 82 86 85 86 92 98 100 100 97 92 92 96 98 98 94 85 82 88 93 93 90 84 80 82 78 66 62 76 91 91 85 80 81 83 87 89 87 84
53 66 77 84 86 85 83 82 81 81 85 91 97 99 102 101 92 86 84 78 67 64 67 71 76 85 92 94 95 98 100 98 91 80 72 75 81 88 94 97 96 98 100 98 100 102 95 87 86 83 73 75 88 92 85 79 78 80 87 93 95 92 86
55 68 78 82 82 82 81 80 80 82 85 90 95 97 99 99 94 88 83 78 75 74 72 71 77 89 97 99 98 95 91 85 78 72 68 69 73 83 93 99 101 102 102 101 102 105 101 93 90 86 79 81 90 91 86 86 88 89 91 94 95 95 94
57 69 79 82 81 78 79 80 80 80 83 88 92 94 95 96 96 91 82 75 73 74 71 69 77 91 99 99 95 91 86 80 78 76 72 72 80 92 99 102 103 102 100 96 95 99 99 93 91 92 86 81 83 82 78 79 86 91 96 98 95 93 92
56 68 79 83 82 78 78 79 78 78 80 84 87 90 91 92 94 93 84 71 66 68 67 66 76 89 95 95 93 93 90 86 83 81 80 85 96 103 102 102 101 97 92 92 96 97 93 88 91 93 89 86 89 85 73 65 68 78 92 100 101 96 93
55 67 78 83 82 79 77 75 74 74 77 80 82 84 86 86 87 89 83 69 60 59 58 61 72 83 85 85 87 90 91 89 86 83 85 92 99 101 101 102 100 96 93 96 100 98 90 88 92 93 91 92 91 83 74 68 67 71 81 95 103 103 101
54 65 77 82 79 75 72 71 72 74 77 79 81 81 81 80 81 84 81 70 56 48 48 55 67 76 81 83 85 87 90 91 89 87 88 93 96 99 104 104 100 99 99 99 100 99 92 90 92 91 89 87 82 79 82 83 80 76 79 91 103 103 98
54 64 74 79 77 75 74 73 74 78 83 87 89 88 86 85 87 89 90 83 65 49 46 53 63 72 81 84 84 86 90 91 91 90 92 95 98 101 105 104 100 100 101 100 101 99 92 90 90 86 84 84 86 93 94 84 74 72 75 87 98 97 90
56 63 74 82 84 83 83 83 82 86 92 97 98 96 93 93 94 97 100 96 78 57 50 54 58 67 79 85 85 87 91 92 91 89 87 89 96 102 105 104 101 100 100 100 103 101 95 92 90 86 89 94 96 102 100 86 74 74 79 84 88 89 88
58 64 75 87 93 92 92 92 92 94 99 101 98 95 93 91 92 98 103 100 86 68 57 54 56 61 74 85 90 92 94 95 92 87 82 81 88 101 106 102 100 101 100 100 105 104 97 94 92 90 93 97 99 102 105 98 89 85 82 78 78 85 93
61 66 75 88 98 98 95 96 97 99 102 102 99 96 91 87 90 99 103 99 92 81 65 55 54 57 66 80 90 94 96 96 93 87 82 79 84 98 106 102 100 101 100 100 106 105 98 96 95 90 90 95 101 102 94 85 84 88 88 86 86 92 98
64 70 79 92 102 102 99 101 102 102 102 102 101 98 92 87 92 102 103 96 93 89 75 60 54 55 60 72 85 91 92 95 95 90 85 82 88 99 104 102 100 101 100 102 106 103 98 100 100 94 92 97 103 100 84 71 77 93 100 99 99 100 100
67 73 82 94 102 103 103 105 105 104 102 102 103 102 96 92 95 103 104 99 95 92 82 68 57 53 55 65 78 87 91 93 97 96 90 88 94 102 103 101 100 100 100 103 104 100 99 104 103 97 95 98 102 100 91 81 84 95 101 101 102 102 101
62 71 82 93 99 102 104 105 104 103 104 104 105 103 98 95 95 96 100 103 102 98 91 79 64 54 52 58 71 84 91 93 97 100 97 93 97 103 102 100 100 101 100 101 102 99 98 102 104 98 94 97 102 103 100 94 90 90 91 94 98 101 101
55 63 75 86 94 99 103 104 102 102 103 104 105 104 100 96 95 93 95 100 103 102 99 91 76 61 53 54 63 78 89 92 96 101 101 98 99 102 101 100 100 101 100 100 101 97 94 97 101 97 92 94 99 103 104 101 97 95 95 96 98 99 100

ECMWFFLT1_700_rhum_105.txt.gz
RH
19 15 14 15 17 20 21 22 23 23 24 27 31 34 36 38 41 44 46 47 48 49 49 48 47 47 47 49 49 50 52 54 56 58 57 57 54 51 48 44 40 38 32 27 25 23 21 20 19 17 16 15 13 13 12 11 11 10 10 9 9 8 9
16 14 15 17 20 22 24 24 24 24 25 28 32 36 38 40 43 45 48 50 50 51 52 51 50 50 51 54 54 54 56 57 59 61 59 58 55 49 46 43 40 37 33 28 24 22 21 21 20 18 17 16 14 13 13 12 11 11 10 10 9 9 8
15 15 17 19 22 24 25 25 24 24 25 28 32 37 39 41 43 46 48 50 52 53 54 53 53 53 55 56 55 55 57 60 62 63 61 57 53 48 44 42 41 39 34 29 25 23 22 22 21 19 18 17 15 14 14 12 12 12 12 11 10 10 9
15 17 19 21 24 25 26 25 25 24 25 27 32 37 40 41 44 45 47 49 51 52 53 53 52 53 55 55 54 55 60 64 65 63 60 55 50 47 45 43 42 40 37 33 28 24 23 23 23 20 18 18 17 15 16 16 14 15 15 14 14 12 10
16 18 21 23 25 27 27 27 26 25 25 27 31 36 40 43 44 45 47 48 49 50 51 51 50 51 53 55 56 59 64 66 65 62 58 53 50 48 47 45 43 41 39 35 30 26 25 24 24 22 19 20 21 19 19 20 19 18 18 18 18 17 14
17 20 22 24 26 28 29 28 27 26 26 27 30 35 39 43 44 46 47 47 48 49 49 49 49 50 53 57 61 65 67 66 64 60 57 54 52 51 50 48 45 43 40 36 32 28 25 25 27 26 22 22 26 24 22 22 21 21 22 21 20 19 18
19 21 23 24 26 29 30 30 29 28 28 28 29 33 37 40 43 45 46 47 47 48 49 50 50 52 58 63 67 68 67 65 63 60 57 56 56 55 53 50 47 43 40 37 33 30 28 29 33 32 27 25 29 29 26 26 27 24 23 23 23 23 22
20 22 24 25 27 29 30 30 30 29 30 29 30 32 35 38 41 42 43 45 47 48 48 49 52 57 64 69 70 70 68 65 63 61 59 59 60 59 55 51 47 43 41 40 37 34 33 35 38 37 33 30 31 32 30 33 35 29 25 25 26 24 24
22 23 25 27 28 30 30 31 31 32 32 31 31 33 35 37 39 40 42 43 45 46 48 51 58 65 71 74 73 71 68 66 65 64 61 61 62 60 55 50 47 46 47 47 44 41 39 42 43 42 38 33 33 36 36 37 38 35 34 36 33 25 24
23 25 27 28 29 31 32 32 33 34 34 34 34 35 35 36 38 41 42 43 44 45 49 56 64 71 73 73 70 68 66 65 65 65 65 64 62 57 51 47 46 47 51 52 49 46 47 50 49 45 44 38 35 40 43 43 45 44 43 46 42 30 26
25 27 29 29 30 32 32 33 34 36 37 36 37 38 38 38 39 40 40 41 42 44 50 59 66 69 68 66 65 65 64 64 65 67 68 67 61 55 52 52 51 50 49 48 46 44 45 49 47 45 47 44 40 46 55 61 65 62 56 56 54 43 34
27 29 30 31 32 33 34 34 35 38 39 37 38 40 41 42 42 43 42 42 45 51 59 66 67 67 66 65 65 64 64 65 68 70 72 67 59 55 57 63 68 69 66 62 55 46 42 44 46 45 46 47 49 57 67 74 76 71 66 65 64 59 48
28 30 31 32 32 33 34 34 36 38 39 38 38 39 42 44 45 46 46 47 54 63 70 72 70 68 67 67 67 66 67 68 70 73 72 65 57 56 59 64 70 78 83 81 74 62 50 49 55 55 51 53 61 65 68 71 68 66 70 74 77 80 73
29 31 32 33 34 34 34 34 36 38 38 39 39 40 43 45 45 48 51 58 68 74 76 75 73 69 68 69 69 69 70 72 75 76 71 60 55 56 58 60 64 71 79 84 87 84 72 68 75 75 65 63 69 68 65 68 67 68 78 88 95 98 89
31 32 33 35 36 35 35 35 37 38 39 39 40 42 43 44 46 52 59 69 77 80 79 77 74 72 71 70 70 71 74 78 81 78 68 58 56 58 59 62 66 71 76 80 87 93 92 91 95 92 83 78 80 79 79 85 89 90 95 100 99 94 84
33 34 35 36 38 37 36 36 38 39 40 41 42 44 44 44 49 58 68 77 82 81 79 77 75 73 72 70 72 74 79 84 86 79 66 56 54 56 58 61 67 76 83 86 89 94 97 99 99 98 96 94 94 95 95 98 101 99 99 100 96 87 78
34 36 37 37 39 39 38 37 39 40 41 42 43 43 44 46 54 65 74 80 82 82 80 78 76 74 72 72 74 78 83 90 90 80 67 60 57 57 56 58 66 76 83 88 94 97 99 100 100 100 101 99 99 99 99 101 101 98 97 98 96 85 71
35 38 40 40 40 41 40 38 39 41 41 41 42 43 45 50 60 69 76 80 83 84 82 78 76 75 74 74 77 82 87 91 92 84 75 73 76 75 70 71 78 81 78 77 82 87 90 94 98 101 100 96 92 93 97 102 101 96 97 99 97 91 81
36 40 42 43 42 42 42 41 40 41 41 40 41 43 47 54 63 72 78 82 84 83 79 76 74 74 76 78 82 85 87 91 97 93 82 82 90 88 80 81 86 85 77 70 68 70 74 80 87 94 96 92 87 87 95 102 101 98 100 102 99 97 97
39 42 44 45 44 43 45 44 42 41 40 40 41 44 49 56 65 74 80 84 84 80 76 74 73 74 79 83 85 87 90 97 102 95 84 87 95 91 84 87 88 82 76 69 62 61 63 65 70 76 81 83 82 82 87 92 94 94 94 94 91 88 92
40 43 45 47 47 45 47 47 45 42 40 40 42 45 50 56 64 75 83 85 83 79 75 73 73 76 81 84 87 90 94 99 102 97 90 91 95 95 95 97 88 75 70 68 63 62 64 64 65 66 67 69 70 69 70 71 75 79 80 83 87 86 87
41 45 47 49 49 48 49 50 48 45 42 42 43 45 50 57 66 78 87 87 82 78 76 76 77 78 81 84 88 92 94 95 101 102 95 88 91 97 96 88 76 68 68 70 69 71 73 71 69 64 60 61 60 59 63 67 70 75 80 85 90 92 93
41 46 49 51 51 50 52 53 52 49 46 45 45 46 50 57 67 80 89 89 83 79 80 81 80 81 85 90 92 93 93 94 97 100 94 83 80 80 75 69 67 68 72 75 76 77 77 74 71 62 53 54 57 59 63 67 68 71 75 78 80 85 90
41 46 51 53 52 52 54 55 54 52 50 48 48 48 51 58 67 77 86 89 87 87 88 88 88 91 94 95 95 95 96 95 94 96 95 83 70 63 62 65 68 70 74 78 80 79 77 76 74 66 57 55 58 60 62 66 69 74 77 78 79 82 87
41 47 53 54 53 52 54 56 56 55 53 52 52 53 57 61 65 73 82 90 95 97 97 96 97 99 99 99 99 98 97 96 94 95 94 82 66 60 61 64 66 70 76 79 79 77 75 74 73 70 64 60 59 60 65 74 82 85 86 88 90 88 88
42 47 54 56 54 52 53 56 59 58 56 57 59 62 67 69 71 78 87 96 100 101 100 99 100 102 103 103 103 101 99 97 98 99 95 81 67 61 60 61 66 72 77 78 78 75 73 72 71 69 66 64 65 70 81 92 99 96 94 100 103 97 90
43 48 55 57 55 53 53 56 61 63 61 60 61 63 66 70 77 85 92 96 98 96 95 96 98 99 100 100 99 100 101 101 102 104 101 88 72 64 64 67 73 79 83 85 84 81 77 76 75 73 70 72 79 88 97 104 104 98 96 101 105 100 93
44 49 58 61 58 55 54 56 62 65 63 60 58 57 58 63 71 80 87 91 91 89 88 89 91 93 93 93 93 95 97 98 99 100 101 93 79 68 66 71 76 82 86 88 86 83 80 79 78 76 75 79 89 99 104 106 103 99 98 101 102 101 99
45 49 57 60 60 57 54 55 61 64 64 64 62 57 55 55 57 63 69 75 77 79 80 83 86 87 88 88 90 91 92 94 94 95 98 98 87 71 62 64 70 76 83 88 89 86 84 83 81 79 80 89 98 104 105 103 101 100 100 101 102 100 99
46 48 55 59 59 57 55 57 62 67 71 74 74 72 68 66 65 63 59 58 65 74 81 85 87 88 90 91 92 93 93 94 94 94 98 103 98 80 64 60 65 73 83 91 94 92 90 89 86 84 89 99 104 104 102 101 101 102 100 101 103 100 90
48 52 62 69 69 64 63 64 67 72 79 83 85 84 81 80 82 77 59 50 60 76 86 92 93 93 96 98 98 97 97 96 96 95 96 100 102 91 72 60 62 71 82 90 95 95 93 92 89 90 98 104 102 101 103 102 101 102 101 100 101 97 87
50 54 67 80 82 75 70 70 72 77 85 90 93 92 87 84 87 81 63 54 63 75 83 92 98 98 100 101 100 100 100 99 99 100 98 98 102 98 82 65 59 66 78 89 95 96 94 93 93 97 104 104 99 99 103 104 102 102 100 98 98 95 91
53 55 65 81 90 86 78 76 77 82 89 95 98 100 95 86 81 76 68 65 71 75 77 85 96 102 105 105 103 103 103 102 102 103 102 100 102 102 92 73 60 62 75 88 96 97 95 95 98 102 105 100 96 98 101 101 104 106 102 98 97 96 96
55 57 63 75 87 92 88 84 84 88 95 100 103 105 100 86 74 72 73 72 74 76 75 78 87 98 105 107 105 103 102 100 100 101 102 102 103 104 99 83 64 60 72 87 96 99 98 97 100 104 101 94 94 100 100 97 101 105 101 96 95 96 98
50 54 61 72 83 88 88 86 87 91 97 101 102 101 92 78 70 72 75 74 74 76 76 75 77 85 95 102 103 101 99 99 99 98 98 100 102 104 104 91 70 60 68 84 94 98 99 100 103 104 98 91 92 99 100 95 97 99 94 92 95 97 96
45 48 57 73 86 88 84 83 87 91 94 95 92 88 80 72 70 73 75 76 78 78 78 77 77 80 87 95 100 101 100 101 101 98 97 99 100 102 105 99 79 62 64 81 94 98 100 103 105 104 98 92 92 98 99 95 95 96 94 94 97 97 98

ECMWFFLT1_700_rhum_108.txt.gz
RH
48 48 49 49 49 48 45 40 34 25 18 14 15 17 19 21 23 24 23 23 22 23 28 34 36 38 40 44 46 48 51 52 52 53 53 55 55 57 60 61 61 55 39 29 29 29 28 29 27 25 25 24 23 24 25 24 23 22 21 19 18 17 16
49 49 50 50 50 48 45 39 32 24 17 15 16 19 21 23 24 25 24 24 23 23 28 35 38 40 42 45 47 49 51 53 54 56 56 58 61 62 65 67 66 60 47 32 27 32 35 36 35 33 32 30 28 27 27 25 24 23 22 20 19 17 16
50 50 51 51 51 49 45 38 30 22 17 15 18 20 22 24 25 26 26 25 25 24 28 34 38 40 43 45 46 47 51 54 55 58 60 61 65 66 67 71 70 65 56 43 34 37 41 41 39 36 34 32 29 28 28 26 24 24 22 21 20 19 17
50 51 51 52 52 49 44 37 27 21 17 17 20 22 23 25 26 27 27 27 26 26 28 33 37 40 42 44 45 45 48 52 54 58 61 62 65 68 69 72 73 68 62 54 45 42 43 42 38 35 34 33 30 28 28 27 25 25 23 22 22 20 18
50 51 52 53 52 49 43 34 26 20 18 18 21 23 25 27 28 28 29 29 28 28 29 32 35 39 42 43 43 43 46 50 54 58 61 63 67 71 73 74 72 68 63 57 49 44 43 41 39 36 34 34 33 30 29 29 27 26 25 23 22 20 19
51 52 54 54 53 48 40 32 25 21 19 21 23 26 27 28 29 30 30 30 30 30 29 31 34 38 41 43 43 44 47 51 55 60 63 68 72 75 75 72 69 65 61 55 49 45 43 42 41 38 35 35 36 33 31 29 28 27 25 23 21 19 18
52 53 54 55 53 47 39 31 26 22 21 23 26 28 29 30 31 32 32 32 31 31 30 30 32 35 38 40 42 45 49 53 58 64 69 73 76 76 74 69 66 64 60 55 51 47 46 46 45 42 38 37 37 36 33 31 29 26 23 22 22 21 20
54 55 55 55 53 47 39 32 26 23 24 26 29 30 31 32 33 33 33 33 32 31 31 30 31 33 35 38 42 46 51 58 65 71 73 76 77 75 71 68 65 63 60 56 53 51 52 52 50 46 41 38 38 35 32 31 30 26 24 25 25 24 24
54 56 56 56 52 46 39 32 27 25 27 29 31 32 33 34 34 34 34 34 33 32 32 31 32 33 35 38 42 48 56 65 73 77 75 76 77 75 72 69 66 63 61 60 58 56 57 56 51 46 43 39 36 34 32 33 35 33 31 33 31 26 26
56 57 57 56 53 47 39 32 28 27 29 32 34 35 35 33 33 34 34 34 34 33 33 33 33 34 36 40 45 54 67 77 82 82 80 79 79 76 73 71 67 66 66 66 63 60 58 56 51 46 43 38 33 35 38 40 44 45 42 41 37 27 27
57 57 57 57 54 48 40 33 30 30 32 35 38 39 38 35 34 34 34 33 32 31 31 32 33 34 37 42 50 63 76 84 85 84 82 80 79 77 73 70 67 66 66 65 61 57 55 53 48 43 39 35 33 38 44 49 53 54 51 51 49 37 31
57 58 58 57 54 49 40 33 31 33 35 37 40 42 43 42 40 38 37 35 33 31 31 31 31 33 36 43 54 68 78 83 83 82 81 79 78 77 74 73 73 71 67 63 59 56 53 51 46 39 35 34 38 43 50 57 60 63 65 66 66 57 43
58 59 59 57 56 50 41 34 34 37 39 40 41 43 46 46 45 43 40 37 36 35 34 33 33 35 38 46 60 73 80 81 80 80 80 79 79 79 77 79 81 79 75 70 66 61 54 49 45 40 37 40 50 55 57 62 65 71 78 79 78 74 60
60 61 61 60 57 51 42 36 36 40 42 42 43 45 47 48 46 44 42 40 39 38 36 36 37 37 41 53 67 79 84 83 81 80 80 81 81 81 81 80 79 78 78 76 72 64 54 49 49 50 50 56 67 69 69 74 77 80 85 83 79 76 68
64 63 64 63 58 53 46 38 37 42 44 45 46 46 48 47 45 43 42 41 41 40 39 39 40 41 47 59 74 83 87 85 83 82 82 83 83 82 81 80 77 77 78 77 73 64 55 52 57 65 70 76 82 84 86 92 95 95 95 89 78 72 67
67 67 67 66 61 56 49 41 38 43 47 48 48 49 48 47 45 44 43 42 42 42 41 42 42 45 54 66 78 86 89 88 85 85 84 84 84 82 80 79 79 80 81 78 70 62 60 62 69 80 89 93 96 97 97 101 101 98 98 95 86 76 65
71 70 71 70 65 60 53 45 40 44 50 52 51 50 49 47 46 46 44 43 43 42 43 44 45 51 61 72 82 87 90 91 89 88 87 84 81 80 78 78 80 82 82 79 73 68 73 81 89 95 97 96 97 99 99 100 98 95 96 99 97 84 67
75 75 75 74 70 65 59 50 42 43 50 54 53 52 50 48 48 47 46 44 43 42 44 46 49 56 65 74 83 88 91 93 94 92 90 86 84 82 79 77 79 80 77 75 72 69 69 74 82 89 90 86 87 93 100 103 101 98 99 103 102 93 80
80 79 78 78 75 70 64 53 44 43 49 54 55 53 52 51 50 49 49 48 45 43 45 48 50 57 65 74 83 89 92 95 96 93 90 89 89 86 82 81 83 81 74 69 68 66 60 55 59 69 76 79 80 85 94 101 103 102 102 103 101 96 93
84 83 82 81 80 76 68 56 45 43 48 53 55 55 54 54 54 53 52 51 48 44 44 46 49 54 64 74 84 92 96 98 98 96 95 96 94 89 88 90 88 81 75 72 71 70 61 49 46 52 61 68 75 79 84 89 94 98 100 102 101 97 96
87 86 84 84 83 80 72 59 47 43 47 53 56 55 56 58 58 57 57 54 50 44 41 43 48 53 62 74 86 96 100 99 99 101 103 102 99 97 98 96 89 83 82 82 80 76 64 49 44 47 53 62 71 78 84 87 89 92 94 95 96 90 85
90 88 86 86 86 84 76 62 50 44 45 52 56 56 58 63 63 63 62 57 49 43 39 40 44 50 59 72 86 96 100 99 100 102 102 100 100 103 101 95 91 92 93 92 89 82 67 51 46 48 54 63 71 77 86 91 92 92 91 87 83 78 71
92 90 88 87 88 86 79 65 52 45 47 53 58 57 59 65 69 69 66 58 50 45 43 43 44 49 58 69 82 93 98 99 99 99 99 100 101 102 99 96 96 100 100 98 95 87 70 53 47 49 55 64 73 78 84 88 88 88 86 82 79 76 70
94 93 91 90 90 88 81 68 53 47 50 56 59 58 60 67 72 72 69 63 58 55 52 50 50 54 61 70 82 93 98 99 101 101 98 96 95 96 97 99 100 101 101 99 95 88 74 56 48 51 57 65 73 78 80 81 81 78 76 75 74 73 71
96 95 93 92 91 88 82 70 55 47 51 59 61 59 62 67 71 73 73 71 67 64 62 61 62 65 70 79 91 99 101 101 102 100 94 89 90 93 96 98 99 99 99 95 91 88 78 60 49 51 58 66 74 76 75 75 73 68 65 65 66 65 66
97 96 95 95 92 88 82 71 57 48 51 61 65 63 64 68 72 75 79 79 74 71 68 69 72 77 85 95 101 102 101 101 100 98 93 92 93 94 95 96 96 94 91 87 86 88 80 64 52 50 56 67 74 74 73 73 69 62 59 62 65 65 63
99 97 97 95 91 88 82 71 57 47 51 63 70 68 67 70 74 78 82 81 77 72 67 66 69 76 87 98 104 104 102 101 101 101 100 99 99 99 100 100 98 94 91 87 87 89 83 67 53 48 54 66 74 77 80 82 77 68 63 65 68 69 66
101 100 100 96 92 88 81 69 55 47 51 63 72 72 70 72 77 82 84 82 77 71 64 61 63 66 71 79 89 98 103 103 103 103 103 103 103 103 103 104 104 102 101 99 97 95 88 73 56 49 54 65 76 83 89 92 89 81 74 72 72 72 72
103 103 100 94 90 88 79 64 51 45 48 58 67 70 68 68 73 77 77 72 68 64 61 61 63 64 64 65 69 78 88 96 101 102 102 102 104 104 103 104 104 104 104 104 101 97 91 78 60 50 54 65 76 86 92 94 94 90 86 84 83 81 82
102 100 94 86 82 80 72 57 45 41 44 53 66 75 76 76 82 86 79 68 62 62 62 64 67 66 65 66 65 66 70 78 87 95 100 102 103 103 104 103 103 104 103 102 100 97 94 85 66 51 53 64 75 87 93 95 98 98 96 94 92 89 88
102 100 97 93 86 78 65 52 44 41 43 53 68 82 88 90 98 103 92 72 64 67 69 69 70 68 67 69 69 69 68 68 71 81 93 102 103 103 103 103 103 102 102 101 100 99 97 89 72 55 53 63 76 87 93 97 102 105 103 100 98 95 90
101 101 103 101 94 80 63 52 47 44 45 54 69 85 92 93 99 107 97 75 67 71 73 71 72 72 72 74 74 74 75 73 71 73 82 93 101 102 102 102 103 102 102 101 101 100 99 93 79 61 53 62 77 88 93 98 104 105 103 102 102 99 90
101 103 104 97 85 71 59 53 50 47 48 55 69 86 97 96 95 101 97 81 72 73 73 72 73 74 77 79 80 81 81 79 77 76 77 85 96 102 103 103 104 105 105 104 101 99 98 96 84 65 55 63 79 90 96 101 104 103 102 104 104 99 90
103 104 99 86 71 61 56 54 52 51 51 57 70 88 100 98 93 95 95 87 78 74 73 74 76 77 79 82 84 85 85 82 81 80 78 83 93 101 104 105 106 107 105 104 102 100 99 99 88 69 58 65 81 94 101 103 103 102 103 105 104 99 91
92 88 80 68 59 55 54 53 52 53 53 58 72 92 102 99 94 97 99 94 86 79 77 78 78 79 80 82 84 86 85 83 81 79 80 84 92 99 104 106 107 107 104 102 102 101 101 102 93 73 61 66 81 96 103 103 103 104 105 104 104 102 96
74 66 60 55 55 56 55 53 52 52 52 55 69 88 98 97 95 96 98 97 93 88 84 83 83 81 80 81 83 85 84 83 80 79 82 88 93 98 102 104 105 106 104 102 103 102 102 104 96 77 64 68 82 96 104 104 105 106 105 103 104 104 99

ECMWFFLT1_700_rhum_111.txt.gz
RH
43 44 46 50 51 52 52 53 54 54 54 54 54 54 55 55 54 52 45 37 29 24 21 19 18 19 20 22 24 24 24 23 23 27 33 38 39 41 45 48 49 44 35 34 41 43 44 44 43 41 39 37 34 32 30 29 28 27 25 24 23 22 21
45 46 49 50 51 52 53 54 55 55 55 55 55 56 57 56 54 51 43 34 27 22 20 20 20 20 22 24 25 25 25 24 24 28 34 40 43 43 46 49 49 48 43 39 42 46 46 43 41 38 35 34 32 30 29 29 29 29 29 28 27 26 26
48 49 50 50 51 52 53 55 56 56 56 56 56 57 57 57 54 48 41 34 27 22 21 22 22 23 24 25 26 27 27 27 26 30 36 41 45 45 46 48 50 50 47 42 41 43 42 38 35 33 32 33 34 35 36 35 35 34 33 33 33 31 29
51 51 50 50 51 53 54 56 57 57 57 56 57 58 58 57 53 46 39 33 26 23 22 24 24 24 25 27 28 28 29 30 29 31 36 41 45 47 47 50 51 50 48 44 39 37 37 35 33 34 37 39 40 42 43 40 38 37 36 35 33 32 31
53 51 51 51 52 54 55 58 58 58 58 57 58 58 58 56 51 45 38 31 27 25 24 26 26 26 27 29 29 30 32 32 32 33 36 40 44 48 50 52 53 53 52 48 43 39 38 37 38 42 46 48 46 45 43 40 38 36 36 35 34 33 32
54 52 52 52 53 56 58 59 59 58 58 58 58 59 58 56 51 45 38 32 29 27 27 28 28 28 29 30 31 32 34 35 35 35 36 39 43 47 51 54 55 56 56 53 50 47 45 45 47 50 53 52 49 45 41 39 38 37 36 36 35 33 31
54 53 54 54 56 58 60 60 60 59 59 59 59 59 58 56 50 43 38 34 30 29 29 30 30 29 30 31 33 34 36 37 36 36 37 39 42 47 51 55 57 59 60 59 58 57 56 56 55 54 53 51 48 44 42 42 40 37 37 36 35 33 31
56 56 56 57 59 61 62 62 61 60 60 60 60 60 59 55 49 43 39 35 32 31 31 31 32 32 32 33 34 36 38 39 38 38 39 41 45 50 54 59 61 63 65 67 67 67 66 63 57 53 52 50 49 47 46 48 46 41 38 38 35 33 30
58 58 58 59 61 63 63 63 63 62 61 61 62 61 59 55 49 44 40 37 34 33 33 33 34 34 35 36 37 37 39 41 41 40 40 42 47 53 57 62 66 70 74 75 75 73 69 63 56 52 51 51 52 53 51 52 52 47 42 39 35 29 25
60 59 59 61 63 64 65 65 64 64 63 64 64 63 60 56 52 47 43 39 37 35 35 36 36 37 38 40 41 42 43 45 46 44 42 43 47 53 61 68 73 76 79 79 76 73 70 63 54 51 54 55 57 59 58 56 54 50 44 37 30 24 22
60 59 61 63 64 66 67 66 66 66 66 66 65 62 59 59 58 54 49 44 40 37 35 36 37 38 40 41 42 44 46 48 49 48 46 47 50 58 69 78 84 86 87 85 81 76 73 65 56 55 59 61 61 62 61 58 54 49 41 33 28 23 22
60 60 62 64 66 68 69 69 69 69 70 69 67 62 57 56 57 55 51 46 42 38 36 36 37 37 39 40 41 42 44 46 48 49 48 50 57 68 78 87 91 89 87 85 80 76 72 66 60 60 61 61 61 62 60 57 52 46 38 33 32 29 28
59 60 62 65 68 70 72 73 73 73 73 72 71 67 59 55 54 52 49 45 41 40 40 40 42 41 41 42 42 42 43 45 46 46 47 52 63 75 85 92 95 93 88 83 76 69 64 62 62 60 58 60 61 61 59 57 51 44 38 36 37 36 36
58 59 63 66 70 73 75 76 76 77 78 76 75 71 64 59 57 53 48 44 42 44 46 47 48 47 46 46 45 44 44 45 45 44 46 53 65 79 89 94 96 97 96 93 86 76 68 68 67 64 63 65 66 64 62 60 53 45 43 41 39 38 39
56 59 63 68 72 75 78 80 81 82 82 81 79 75 70 67 64 56 48 44 44 47 51 52 51 50 51 51 49 48 48 47 46 45 48 55 68 81 92 97 96 94 92 90 87 83 78 77 76 74 73 72 71 70 68 67 63 58 54 48 39 38 42
55 59 64 69 74 78 81 84 86 86 85 84 83 80 78 75 69 59 49 44 46 52 55 54 53 54 55 53 52 51 50 49 48 48 51 59 72 84 93 94 93 92 88 84 82 80 80 80 81 82 80 76 75 76 79 81 77 69 63 57 49 46 47
54 59 65 71 77 82 85 87 89 89 89 88 87 86 84 80 73 62 50 44 48 55 57 56 56 58 57 55 54 52 51 51 51 50 53 62 75 88 94 93 92 91 86 82 81 80 80 82 85 86 84 81 80 85 92 94 84 73 70 68 61 53 52
54 60 67 73 80 85 87 88 90 92 91 91 91 90 88 83 75 63 51 45 49 55 57 56 57 59 57 54 53 53 53 54 55 55 57 65 76 86 90 90 91 90 86 84 84 83 82 83 86 87 84 81 82 88 98 100 92 87 87 83 74 66 63
55 61 68 76 84 89 90 89 91 93 94 93 92 91 89 85 76 62 50 47 52 57 58 57 58 59 58 55 54 54 54 56 58 60 63 72 82 86 85 86 87 85 82 81 81 81 82 84 87 89 87 85 85 90 97 101 97 92 88 83 79 77 76
56 62 70 81 88 91 92 92 92 94 95 94 92 92 92 86 75 60 49 48 54 57 57 56 57 60 61 60 59 58 59 61 64 67 70 76 83 86 86 87 86 80 76 76 76 77 78 79 82 87 89 89 90 94 100 105 105 98 88 82 79 78 79
57 64 73 84 91 93 94 94 94 95 96 94 93 94 94 87 73 57 49 50 55 58 56 54 57 63 65 63 62 64 67 68 70 77 83 85 85 87 89 86 81 78 78 79 78 76 74 74 76 80 82 83 84 88 94 99 98 93 86 80 78 78 79
59 68 77 87 94 95 94 94 96 96 95 95 94 94 94 87 71 56 51 53 56 58 56 55 60 66 67 65 64 66 70 72 76 86 93 93 93 97 95 89 87 90 93 92 89 83 78 77 80 82 83 82 81 84 90 90 80 69 66 68 70 74 77
63 72 81 90 95 95 94 95 97 97 97 97 95 93 92 86 70 55 54 57 57 57 57 58 62 67 68 68 67 66 68 73 81 87 90 91 98 102 99 96 99 103 103 100 96 90 84 83 84 85 86 85 85 86 90 89 75 60 56 62 67 72 77
66 77 87 94 95 93 95 97 98 99 101 99 95 92 91 83 67 55 56 60 61 61 61 62 66 70 74 76 75 73 72 74 78 85 92 99 104 104 101 101 103 104 103 99 93 87 83 83 85 85 85 85 86 86 88 88 77 60 53 59 66 73 79
71 83 93 97 95 92 93 97 98 100 101 99 93 89 87 80 64 53 55 60 64 68 67 65 69 76 82 85 85 82 80 79 80 85 93 100 104 103 103 104 102 100 97 91 85 82 80 80 81 82 83 84 84 85 88 89 78 59 51 57 65 72 79
77 89 97 98 96 92 91 92 95 96 98 97 92 88 85 76 61 50 50 57 66 72 72 69 73 81 88 91 91 89 86 86 87 88 90 94 96 97 98 98 96 94 90 84 80 81 79 77 77 78 80 84 85 85 88 88 77 58 48 55 65 71 76
84 94 99 101 98 93 88 87 89 92 95 95 93 92 86 72 58 51 52 60 72 79 79 77 80 84 88 91 91 91 91 90 91 93 94 97 98 96 94 92 90 89 86 83 83 82 78 76 76 78 82 87 87 86 87 87 78 59 47 54 66 72 74
90 97 102 103 98 91 85 82 84 89 93 94 94 92 82 66 56 53 54 61 75 84 84 81 81 83 86 89 89 88 87 85 85 87 89 92 96 98 99 98 97 95 94 92 91 89 85 82 83 87 92 94 91 89 89 90 83 63 48 53 65 71 73
96 100 102 103 100 94 87 82 81 86 89 90 88 80 67 56 52 50 50 56 67 77 78 76 77 80 85 88 86 81 78 77 78 78 78 80 83 86 89 92 96 99 100 101 100 98 96 96 97 98 98 95 91 90 91 93 88 69 51 53 65 73 76
101 101 101 101 99 94 87 80 79 81 82 81 74 63 54 50 49 48 47 46 50 58 65 67 70 77 82 84 80 75 73 75 76 75 76 78 78 80 81 82 85 89 93 97 101 102 102 103 103 99 95 92 91 90 91 94 90 72 54 53 66 76 80
102 102 102 100 94 90 85 81 80 79 74 68 61 54 52 53 53 55 57 52 47 51 61 69 73 78 83 84 80 75 74 76 77 77 78 79 81 82 83 82 83 84 84 86 92 99 103 104 102 96 92 91 90 90 92 95 91 74 57 55 68 79 81
102 101 102 100 98 97 96 92 85 76 66 58 53 52 54 55 55 59 65 62 54 52 64 80 87 88 88 89 87 83 80 79 79 81 82 81 82 84 86 86 86 86 83 81 84 93 101 104 102 97 93 91 90 90 91 93 90 76 59 57 71 83 82
102 101 101 101 102 102 99 90 77 65 58 54 53 54 57 58 57 57 60 60 55 53 65 83 94 95 94 95 95 93 90 86 85 85 85 83 83 84 87 89 89 87 85 84 84 89 97 103 103 99 95 93 92 91 90 92 91 77 60 59 74 86 87
103 103 102 100 97 92 83 72 62 56 54 55 57 60 62 60 56 53 54 56 55 54 62 74 85 91 95 96 96 97 97 95 93 91 90 88 86 86 88 91 90 89 87 86 87 90 97 102 103 101 99 97 95 93 92 93 91 77 61 63 78 88 88
94 95 91 86 79 72 65 58 54 54 56 58 61 65 65 59 54 51 53 55 55 57 63 71 80 88 93 95 96 98 101 102 100 98 95 93 89 87 88 90 90 89 87 88 91 95 99 102 102 102 100 97 96 94 94 95 93 79 62 65 82 91 88
76 75 71 66 61 58 56 54 53 53 54 56 59 61 59 54 51 50 51 52 54 61 70 77 84 91 94 96 98 98 99 102 103 102 100 96 91 88 88 89 90 90 89 90 94 99 102 103 102 101 100 97 95 94 94 97 95 80 64 69 87 94 89

ECMWFFLT1_700_rhum_114.txt.gz
RH
101 101 102 102 95 88 85 71 48 42 50 54 56 57 55 55 57 58 60 60 60 59 59 59 60 60 60 58 56 52 46 40 35 30 25 22 20 20 21 22 23 22 19 17 17 22 29 30 29 30 33 35 34 35 37 36 37 37 36 36 35 34 32
101 100 102 101 94 92 87 67 48 50 58 60 60 59 57 57 58 59 61 61 61 61 61 61 61 62 61 59 56 53 45 38 32 28 24 23 23 23 23 25 26 26 24 20 19 26 32 33 32 33 35 37 37 37 38 38 38 37 36 35 33 31 30
100 101 103 98 94 95 82 59 52 60 64 64 63 60 58 58 59 61 62 62 62 63 62 62 63 63 63 60 57 53 45 36 31 28 26 26 26 26 26 28 30 29 28 25 21 27 34 34 35 37 37 38 38 38 38 38 37 36 34 32 29 28 26
101 102 100 96 98 93 72 56 61 68 68 67 64 60 59 59 60 63 64 64 64 64 63 64 64 64 64 62 59 53 44 36 31 29 29 28 29 30 29 31 33 33 32 30 25 27 33 36 37 39 38 38 37 36 36 35 33 31 29 28 27 26 26
102 101 98 99 99 83 63 61 70 71 70 67 63 60 60 60 62 64 65 65 66 65 65 65 65 66 65 63 59 53 44 36 32 32 32 32 32 33 33 33 35 36 36 35 30 29 33 36 38 40 40 39 38 36 35 33 32 30 28 28 29 32 35
100 98 99 101 91 71 63 70 74 72 70 67 62 61 61 62 64 65 66 67 67 67 67 67 68 68 66 63 58 51 43 37 35 35 35 36 36 36 36 36 37 39 39 39 36 33 33 35 38 40 40 40 41 40 37 36 35 35 35 35 37 40 42
96 98 102 94 76 66 70 75 74 72 69 65 62 61 62 64 66 67 68 68 69 69 69 69 70 70 67 63 57 48 42 39 38 37 38 40 41 40 40 39 39 41 41 40 38 36 35 35 38 41 41 42 45 46 43 41 41 43 46 47 46 44 42
96 100 95 79 67 69 75 75 74 72 67 62 61 61 63 65 67 68 70 71 71 72 72 72 73 72 69 64 57 49 44 42 42 42 42 42 43 44 43 42 42 42 42 41 39 37 37 37 38 41 44 47 50 50 51 53 52 51 52 51 47 44 41
99 94 80 69 68 74 76 75 73 68 63 61 60 61 64 66 68 71 72 74 75 74 75 75 74 73 71 65 57 51 46 45 45 46 45 45 45 45 45 44 44 44 43 42 39 38 38 39 41 44 49 54 57 59 61 63 61 56 54 52 48 44 42
95 81 68 67 73 77 77 75 70 64 60 59 60 62 65 67 70 74 75 76 77 77 78 77 75 74 71 65 57 50 47 48 48 49 48 47 48 48 48 47 45 44 45 43 40 38 39 41 44 49 57 63 66 69 69 66 62 58 56 54 50 46 46
80 67 66 72 78 80 77 72 65 61 58 58 60 63 66 69 72 76 78 79 80 80 79 77 76 75 72 66 58 50 48 50 51 51 50 50 51 51 51 50 48 46 46 45 41 39 41 44 47 55 67 73 73 73 71 66 64 62 60 59 55 51 50
66 64 72 80 83 80 73 66 61 58 56 58 61 65 68 71 74 77 79 81 81 80 79 77 76 75 73 70 60 49 46 51 53 53 52 51 52 51 50 51 50 49 49 48 45 42 42 47 54 64 76 81 80 78 75 71 69 68 66 64 61 57 54
64 73 81 84 82 75 67 61 57 55 55 57 61 66 71 76 79 81 82 83 81 79 77 78 78 76 74 71 62 49 45 50 54 54 52 51 51 50 49 49 51 53 52 49 46 44 46 56 72 81 84 85 84 82 79 76 73 72 70 67 64 60 57
73 82 86 82 75 67 60 56 53 52 54 58 62 68 75 80 85 86 87 88 86 81 78 79 80 79 76 72 61 48 45 51 55 54 52 51 51 51 50 49 50 53 54 52 50 48 51 64 80 87 86 85 83 79 77 75 73 73 72 68 64 60 56
83 86 83 75 66 59 54 51 50 51 54 59 65 72 79 85 88 90 90 90 89 86 84 83 82 81 78 68 56 46 46 53 56 54 52 52 52 53 52 50 49 51 53 55 59 61 66 75 83 85 83 80 77 75 76 77 76 75 71 65 60 57 54
87 84 76 66 58 54 50 48 49 52 55 61 68 76 84 89 92 93 92 91 89 88 87 86 85 83 77 64 52 47 51 56 58 55 53 54 53 54 54 51 50 51 53 56 62 71 80 89 93 92 88 82 78 78 80 81 79 75 72 67 63 59 58
84 76 66 58 53 49 47 47 50 54 58 64 72 81 89 93 94 94 92 90 90 89 88 87 87 84 75 60 50 52 58 62 61 58 57 56 55 54 53 51 50 52 55 59 65 73 83 92 97 97 94 90 87 85 87 86 80 76 77 75 71 67 66
76 67 59 53 49 47 47 48 52 56 61 68 78 88 94 96 96 95 92 90 89 88 86 85 85 83 72 56 49 54 61 63 64 66 64 60 56 51 49 49 51 53 54 58 66 75 83 91 95 95 92 89 86 86 91 94 90 87 88 85 78 75 74
68 60 53 48 46 46 48 49 52 59 65 73 83 93 98 99 98 95 93 91 89 88 85 83 83 80 69 54 48 53 59 63 67 70 68 65 61 55 49 49 52 54 56 61 67 75 82 88 92 92 89 86 85 87 92 97 97 96 97 94 90 88 88
61 55 49 47 47 47 49 51 54 61 70 79 89 97 101 102 100 97 94 93 90 87 84 82 82 78 65 54 52 57 61 65 70 72 72 69 64 57 54 56 57 55 56 61 65 71 80 87 90 92 90 88 87 87 89 93 95 97 98 97 96 96 94
56 51 49 48 47 47 49 52 56 64 74 85 94 100 102 103 102 99 98 95 90 86 83 80 81 76 62 51 54 62 66 67 71 77 79 74 67 64 66 70 66 56 51 54 58 66 76 85 89 92 92 92 91 91 92 94 96 99 100 99 98 99 96
52 51 51 50 49 49 50 54 60 68 80 91 98 100 102 104 104 103 102 96 88 85 83 82 81 74 59 49 55 66 69 68 71 80 83 82 82 85 84 81 75 67 63 65 69 72 77 81 85 87 87 89 91 91 90 90 92 95 97 97 98 100 99
52 52 52 51 50 49 51 57 65 74 85 94 99 100 103 105 106 106 104 97 89 84 83 81 79 71 55 48 57 69 72 70 73 81 86 89 92 89 82 79 83 85 86 87 85 83 81 80 80 80 79 81 81 78 76 77 79 81 83 84 86 88 89
53 54 53 51 49 50 55 62 71 82 91 96 98 101 103 105 106 106 104 98 91 86 84 82 77 67 52 47 55 67 73 72 74 81 89 94 93 85 80 83 89 92 94 95 93 89 87 84 82 82 81 79 75 71 69 69 70 73 76 78 79 80 81
55 54 53 51 50 53 59 66 75 88 97 100 99 100 102 103 104 103 102 97 91 88 88 84 75 62 50 46 53 65 73 73 75 84 93 99 98 90 86 89 90 90 92 93 92 91 91 89 88 86 84 81 77 73 71 69 70 72 74 77 79 81 82
55 53 52 52 54 57 63 71 82 93 101 102 99 97 99 102 103 100 96 91 88 89 88 81 70 58 49 46 53 67 77 78 80 89 97 102 102 98 94 93 91 90 89 86 85 87 87 86 87 86 84 81 78 76 74 73 74 74 74 77 83 84 85
54 52 51 53 56 60 67 77 89 98 104 102 97 94 97 101 101 97 93 89 88 88 81 70 60 55 51 48 52 68 84 89 90 95 100 103 104 102 100 97 93 90 87 84 83 82 81 80 81 81 79 78 77 77 77 77 78 77 76 80 86 86 84
52 52 53 55 59 66 76 87 96 102 104 101 95 92 96 99 100 99 98 95 90 83 71 59 53 52 51 50 54 70 88 96 97 99 103 105 105 103 98 95 92 89 87 86 86 84 82 81 79 77 76 75 74 74 77 80 81 79 79 86 92 88 84
53 53 55 60 66 76 87 93 98 102 101 96 92 91 95 99 102 101 97 90 82 73 63 54 51 50 51 52 57 71 86 94 97 101 104 105 105 102 96 91 89 87 87 87 89 88 86 85 84 83 83 80 75 72 75 80 85 85 87 95 98 93 89
55 58 63 70 79 90 98 99 99 101 99 93 92 94 96 96 94 88 79 70 64 59 55 52 52 52 52 53 56 65 78 90 99 103 104 103 102 100 94 88 85 85 86 87 87 87 86 86 87 88 88 86 81 78 75 78 86 90 94 99 100 95 93
63 68 76 84 89 94 95 93 92 93 93 90 91 92 91 86 78 71 66 62 57 54 51 51 52 52 51 52 53 55 65 81 95 101 100 100 101 99 95 91 87 85 86 87 87 86 86 87 88 89 90 88 85 82 78 77 83 91 97 100 100 98 96
75 81 90 96 98 96 91 88 87 87 85 82 81 79 76 70 64 61 63 65 65 61 55 52 53 53 53 53 53 53 56 66 80 91 97 100 101 100 100 100 98 94 90 89 89 88 88 88 89 90 91 89 86 82 78 77 82 92 99 102 102 101 97
86 91 94 97 99 100 98 96 94 89 82 75 69 65 61 59 58 57 59 62 64 64 63 63 63 61 58 54 52 53 55 59 69 84 95 101 102 102 103 105 106 103 98 94 93 93 90 88 88 89 89 87 83 80 77 77 84 95 101 102 102 102 98
92 96 95 91 88 88 88 86 82 75 68 62 58 57 58 59 58 57 58 62 64 64 67 71 70 66 63 60 57 56 58 60 69 83 95 101 104 105 105 106 107 107 104 101 99 96 93 89 88 89 89 87 84 81 80 82 88 95 100 101 102 102 98
72 78 80 77 73 71 69 66 63 60 57 56 56 58 61 60 57 55 57 62 63 62 64 67 66 64 64 65 64 63 63 66 74 86 95 101 104 105 106 106 105 105 104 103 101 99 95 92 90 90 90 89 85 83 84 88 92 96 99 101 101 101 98
48 52 56 57 58 57 56 54 52 51 51 52 54 58 59 58 56 58 62 65 68 71 74 77 78 76 75 75 73 72 72 74 78 86 94 99 102 104 104 103 103 103 102 101 101 100 96 92 90 91 91 89 86 86 88 92 96 99 101 102 102 100 97

ECMWFFLT1_700_rhum_117.txt.gz
RH
82 89 93 98 100 100 100 100 100 100 100 100 100 100 100 100 95 91 90 80 64 63 73 74 71 68 65 64 63 64 65 64 63 63 63 64 63 63 63 62 60 57 52 48 48 47 42 37 34 30 25 22 20 18 17 17 16 16 18 21 24 26 29
74 90 99 101 100 100 100 100 100 100 100 100 101 100 101 100 95 93 91 77 66 71 77 74 70 68 66 65 64 65 65 65 66 66 66 66 66 65 64 64 61 57 55 52 50 47 40 34 32 29 24 22 21 20 20 20 18 19 23 26 29 32 34
67 84 96 100 100 100 100 100 100 100 100 101 100 100 101 99 95 95 89 75 71 77 77 72 70 68 65 65 65 65 66 66 68 69 69 68 69 68 66 65 61 56 53 52 50 46 39 33 30 27 24 24 23 22 22 21 20 23 28 30 33 36 37
68 80 89 96 100 100 99 100 100 100 100 100 100 101 101 98 97 95 84 74 76 80 76 72 69 66 64 64 64 65 66 68 71 71 71 71 70 70 68 65 61 55 51 48 47 44 38 33 30 26 25 25 25 24 25 24 22 25 31 32 33 36 38
69 78 88 95 99 100 100 100 100 100 100 100 100 101 100 99 99 92 79 76 80 79 74 71 67 64 63 64 64 66 68 71 73 73 73 73 72 71 69 66 61 55 49 45 43 41 37 33 31 28 26 27 28 26 26 26 26 28 32 33 34 35 35
68 74 90 99 99 100 100 100 100 101 100 100 101 100 100 100 96 84 77 79 81 77 73 69 64 62 63 64 65 67 71 74 75 75 75 73 72 72 69 65 59 54 49 44 41 40 37 34 33 32 29 29 31 29 28 28 27 30 34 35 35 34 33
70 76 91 100 100 100 100 100 101 100 100 101 100 100 102 98 87 79 80 82 79 75 71 65 61 61 62 65 68 71 74 77 77 77 76 75 74 72 68 62 58 53 49 45 42 40 38 36 35 34 32 32 33 32 31 31 30 31 35 37 37 36 34
77 86 97 101 100 100 101 100 100 100 101 100 100 102 99 89 81 80 83 82 77 72 66 61 60 61 62 66 70 74 77 79 79 79 78 77 75 72 66 61 57 53 48 45 43 41 40 39 38 37 36 35 36 34 33 34 34 33 35 38 40 40 40
85 95 101 101 100 101 100 100 100 101 100 100 101 100 90 81 82 85 84 78 73 66 61 58 58 60 63 67 72 77 80 81 81 80 79 78 75 71 66 61 56 51 48 45 44 43 42 41 40 40 39 38 39 39 38 38 37 35 37 40 42 44 48
91 96 99 101 101 101 101 101 101 100 100 102 99 90 82 83 88 86 80 73 66 60 57 56 57 59 64 69 75 80 81 81 81 82 81 80 76 70 64 60 55 50 47 47 46 45 44 43 41 41 42 40 40 43 42 40 39 39 42 47 48 49 56
94 95 97 100 101 101 102 101 100 100 102 99 89 82 85 90 88 80 72 66 60 56 55 55 57 61 65 71 78 82 81 81 82 83 83 82 78 70 62 58 54 50 47 48 48 47 48 46 43 44 44 41 41 44 44 42 44 46 51 57 61 62 66
95 96 97 99 101 102 101 100 101 102 97 88 83 87 92 89 80 72 65 59 56 54 53 54 58 63 68 75 82 84 82 82 83 84 85 84 78 70 62 57 54 51 48 47 48 50 50 49 47 48 47 44 44 46 46 45 48 54 64 73 77 76 73
97 98 99 101 101 101 100 102 101 94 87 85 90 94 89 79 71 65 59 55 53 52 53 57 60 64 71 78 82 81 80 82 84 85 86 85 80 71 62 56 55 55 53 50 50 51 51 51 53 52 49 47 48 49 48 48 52 66 82 89 88 84 78
100 100 101 101 100 101 101 99 91 85 87 94 96 89 79 70 64 58 54 52 50 51 54 57 61 67 75 81 80 77 76 80 83 84 85 86 81 72 62 54 51 54 57 57 57 56 55 55 55 53 51 51 53 52 50 50 60 79 96 99 95 91 83
101 101 100 100 101 101 96 89 84 89 96 97 89 79 70 63 58 53 51 50 50 52 55 57 62 70 79 82 79 75 76 78 80 82 84 85 80 70 61 52 47 49 55 60 63 64 62 59 57 55 52 52 55 56 59 66 78 93 102 102 98 92 83
100 100 100 101 101 95 88 86 91 98 97 88 78 70 63 57 54 51 50 50 51 54 57 61 69 78 84 83 77 76 80 83 84 81 79 79 77 69 59 50 47 52 58 61 63 64 64 62 59 57 54 52 53 54 62 80 94 101 104 104 98 88 78
100 100 101 100 96 91 88 92 98 96 88 78 69 63 57 53 51 50 51 52 54 56 60 67 78 87 88 83 77 79 85 92 96 90 79 74 71 65 56 47 46 53 60 65 68 67 66 64 62 62 64 69 73 73 80 91 94 93 95 96 89 81 75
100 100 100 97 94 94 94 96 94 87 77 68 61 56 52 50 50 51 53 53 55 59 64 74 85 91 89 83 80 84 90 97 103 99 88 78 71 63 52 45 47 54 60 68 73 72 69 68 67 68 69 74 81 89 97 99 93 89 91 89 85 81 78
101 100 99 97 96 98 97 93 85 76 67 60 55 52 50 50 52 53 53 55 58 63 71 82 90 91 88 84 83 87 91 95 99 99 93 82 72 61 48 43 49 58 62 67 73 71 68 67 68 70 68 65 68 78 91 97 97 98 99 95 92 92 90
101 100 98 97 98 98 94 85 75 66 58 53 51 50 50 51 53 53 54 58 62 69 79 89 91 88 86 86 87 90 94 97 100 100 92 80 69 57 48 48 54 59 63 70 73 72 69 66 66 68 67 63 64 71 85 98 102 102 102 102 101 102 100
101 100 97 97 96 93 85 74 65 57 52 50 50 50 51 52 53 54 57 61 68 77 87 92 91 88 85 85 87 90 94 98 102 100 91 79 65 53 50 56 62 63 65 68 68 68 68 67 69 72 72 70 69 71 83 97 103 103 103 103 105 106 102
101 99 97 95 92 84 74 65 58 53 51 50 50 50 51 52 54 57 62 67 75 86 92 92 90 88 86 85 86 88 90 94 98 99 90 75 63 60 66 71 73 73 70 65 66 71 72 69 70 73 78 82 81 82 88 96 101 104 105 104 105 106 101
101 99 95 90 82 74 65 59 54 51 50 49 50 51 52 54 57 62 69 76 84 91 94 92 90 88 88 87 87 89 91 94 97 98 88 72 67 77 85 82 78 79 75 72 77 83 80 74 70 70 73 79 85 91 97 100 100 100 102 104 105 105 102
100 95 88 81 73 66 60 57 54 52 50 49 50 52 54 57 62 69 79 88 92 92 93 93 90 90 90 89 88 88 91 94 96 95 84 69 65 72 76 75 77 81 82 84 89 90 87 82 77 73 71 71 75 80 86 91 94 95 97 100 101 101 101
94 88 80 73 68 63 60 58 56 53 51 50 51 54 57 61 67 75 88 98 99 97 98 97 94 93 95 94 90 89 89 92 94 91 80 67 61 62 68 77 83 84 85 90 95 96 95 90 84 80 77 73 70 69 69 74 80 82 84 87 88 90 91
86 80 74 70 67 64 61 58 56 54 52 52 53 57 62 67 72 82 94 102 102 101 102 101 99 100 101 98 94 92 92 92 89 82 72 63 59 64 75 85 88 87 89 94 98 100 100 94 87 85 82 76 72 71 72 73 72 70 70 70 70 72 74
78 74 70 67 65 62 59 56 54 53 54 55 57 61 67 73 82 93 100 103 102 102 102 102 102 102 99 96 94 93 92 88 82 72 64 58 55 63 81 95 98 96 97 99 100 102 100 94 89 85 82 77 74 75 76 77 76 74 72 70 68 65 62
74 70 67 64 60 58 56 55 55 55 57 60 64 70 77 86 95 100 101 101 102 102 103 103 102 100 97 94 90 86 81 75 70 65 61 58 55 59 77 96 104 103 101 101 102 103 101 97 91 86 82 80 78 77 78 78 79 79 78 77 74 69 63
71 67 62 59 56 55 54 54 56 61 66 70 76 84 93 100 103 103 102 103 104 104 103 102 99 95 92 87 81 74 67 63 61 61 60 60 59 60 68 84 100 106 104 103 103 102 101 100 97 91 85 81 78 79 81 81 81 81 81 80 77 73 69
65 61 57 55 55 57 59 62 66 71 76 80 88 97 102 102 101 99 99 100 103 104 103 99 92 84 78 73 68 63 59 56 58 61 62 62 65 67 69 79 96 105 104 102 103 103 102 102 102 98 91 85 81 83 84 84 84 84 83 82 80 77 75
61 60 60 60 59 59 63 67 71 76 80 85 92 99 102 101 99 97 95 93 95 95 91 85 79 72 66 62 60 57 55 57 60 64 67 69 70 71 71 76 89 102 105 103 102 101 101 101 102 103 100 95 91 89 88 88 88 87 84 83 82 80 79
63 64 66 68 66 62 58 56 55 56 59 64 69 74 78 81 83 83 84 87 91 91 83 74 67 63 59 57 58 57 58 60 63 67 71 74 74 71 68 68 74 85 97 104 103 102 102 103 105 107 107 103 100 96 93 92 91 89 85 82 80 78 79
65 65 63 62 60 57 54 51 49 47 47 48 51 55 59 62 63 64 67 72 77 77 74 70 66 63 61 60 61 62 62 61 61 63 67 73 75 73 72 70 65 66 77 93 102 104 105 105 105 106 104 103 102 102 98 96 95 92 88 83 79 78 78
56 54 52 48 46 45 45 45 46 46 46 47 49 51 55 58 58 57 58 61 63 64 65 69 72 74 74 72 70 69 68 65 61 60 63 69 75 78 81 78 70 63 67 80 92 100 104 104 103 103 102 101 101 101 100 98 97 95 90 83 79 78 80
40 40 39 38 38 38 39 39 39 39 41 43 45 49 54 55 54 53 54 58 61 63 65 67 70 74 78 80 79 78 78 78 76 74 73 75 79 87 92 89 81 76 76 80 88 97 102 102 101 103 105 105 103 101 99 98 97 95 90 84 81 81 83
31 32 33 33 34 36 37 39 41 43 45 47 50 55 60 61 60 61 64 66 67 68 70 71 72 76 80 84 88 91 93 94 95 95 93 91 92 95 99 99 95 93 91 91 94 98 99 98 101 105 107 106 105 103 100 98 97 95 89 85 83 85 85

ECMWFFLT1_700_rhum_120.txt.gz
RH
36 38 37 32 28 29 33 38 45 52 57 61 67 81 96 101 100 101 100 100 101 100 100 101 101 100 101 101 96 88 83 80 76 72 73 76 73 70 68 65 63 58 49 46 49 51 48 43 43 44 42 41 41 40 40 39 39 39 38 38 37 37 36
34 33 29 27 30 37 46 56 65 72 76 78 76 79 92 100 100 100 100 100 100 100 100 101 100 101 102 100 94 87 84 81 76 74 75 76 72 69 66 63 61 57 50 46 49 54 52 47 44 44 46 46 44 44 44 42 42 43 43 41 39 37 35
29 28 29 34 41 51 61 70 79 85 87 89 87 87 93 99 100 100 100 100 100 100 100 100 100 101 101 99 93 88 85 80 75 77 78 75 71 67 63 61 59 57 53 49 50 53 55 55 49 46 49 53 51 48 48 47 45 45 44 42 39 35 31
31 33 38 45 53 62 72 80 87 92 92 92 91 92 97 100 100 100 100 100 100 100 100 101 101 100 99 98 93 87 83 79 77 80 79 73 68 64 61 59 58 57 57 54 51 52 58 62 59 52 52 56 55 51 50 50 48 45 44 40 36 32 28
37 42 47 55 64 73 83 90 94 95 93 91 93 96 99 100 100 100 100 100 100 100 100 101 100 100 99 95 91 86 81 78 80 81 76 68 63 61 59 59 58 59 61 60 56 55 59 65 66 61 57 57 57 55 52 51 48 45 42 38 34 30 26
45 51 57 66 76 85 93 97 97 95 93 94 97 100 101 100 100 100 100 100 100 101 100 100 100 101 99 94 89 84 80 81 82 79 71 64 60 59 59 58 60 62 64 65 62 60 62 66 69 66 61 58 58 56 53 50 47 44 40 36 32 28 25
56 62 69 79 88 95 99 99 97 95 96 98 100 101 100 100 100 100 100 100 100 101 100 100 101 101 99 95 89 83 82 84 82 74 66 60 57 58 59 59 62 66 67 67 66 63 65 68 69 67 63 59 59 57 53 50 46 42 38 34 31 28 26
69 76 83 91 98 101 101 100 98 98 100 101 100 100 100 100 100 100 100 101 100 100 101 100 101 103 100 94 86 84 86 84 76 67 61 57 56 58 61 62 66 69 70 70 68 66 68 69 67 65 64 62 60 56 52 49 44 39 36 34 32 30 27
84 91 96 99 101 101 101 101 101 100 100 100 100 100 100 100 100 100 101 100 100 100 101 101 103 103 97 89 87 88 86 78 68 61 56 55 57 60 63 66 70 73 74 73 71 69 70 68 64 63 65 63 59 55 50 47 44 39 37 37 35 30 28
97 99 101 101 101 101 102 102 102 101 100 100 100 100 101 100 100 101 100 100 101 100 100 102 104 98 89 88 91 88 78 68 61 56 54 56 59 62 66 70 74 77 77 76 75 72 70 67 62 62 65 63 58 53 48 45 44 42 41 42 37 30 29
101 101 101 101 100 101 101 101 101 101 100 101 100 100 100 100 100 100 100 101 100 100 102 104 99 90 88 91 90 79 68 61 57 54 55 58 61 65 71 76 78 79 78 79 78 73 70 67 62 62 65 62 55 50 47 46 47 46 44 43 39 34 31
100 101 101 101 101 101 101 100 100 100 100 101 100 100 101 100 100 100 100 100 101 102 103 98 90 88 92 90 80 69 62 57 55 55 57 60 64 70 75 79 82 81 81 82 79 74 69 65 63 64 64 58 51 48 48 48 47 48 48 46 43 38 34
101 101 101 101 101 101 100 100 100 100 100 100 100 101 100 99 101 101 101 101 102 102 96 90 90 93 90 80 69 62 58 54 55 57 59 62 67 74 80 84 87 88 86 82 77 72 67 65 67 68 61 54 50 48 49 49 49 50 51 50 46 42 39
101 101 101 101 101 101 100 101 100 100 101 100 100 101 99 97 97 100 102 102 99 94 90 91 94 90 80 70 63 57 54 54 56 59 62 67 73 80 86 88 88 90 90 85 80 75 69 68 69 66 57 50 49 49 50 51 52 54 53 50 48 44 42
101 101 101 100 101 101 100 101 100 100 100 100 100 101 100 97 95 94 96 95 91 89 91 94 90 79 69 63 56 53 54 56 58 62 66 71 77 83 87 85 84 87 87 85 85 83 78 74 69 63 55 50 50 52 55 57 59 58 56 52 48 43 41
101 101 101 100 101 101 100 100 100 100 100 100 100 100 100 100 97 93 90 88 86 88 89 86 78 68 61 56 52 53 55 56 60 65 68 73 80 85 85 83 83 86 84 82 84 84 82 75 66 58 53 50 49 49 53 63 67 61 57 56 51 43 40
101 100 101 100 100 100 100 100 100 100 100 100 100 101 100 99 97 94 92 91 90 88 84 77 69 62 56 53 52 54 56 60 64 66 70 77 82 84 83 81 82 84 84 85 86 84 80 74 67 63 61 62 65 63 67 79 76 64 63 63 53 44 41
100 100 100 100 100 100 100 100 100 100 100 100 101 102 101 99 98 98 96 94 90 84 76 68 61 56 54 54 54 55 57 62 68 73 80 84 84 83 80 78 80 82 81 85 88 85 80 73 70 72 73 76 81 82 89 95 83 71 73 69 55 49 49
101 101 101 101 101 100 100 100 100 100 100 101 102 102 101 101 100 98 95 89 83 75 67 61 56 53 54 54 55 56 59 65 74 84 91 93 91 87 81 80 85 87 82 81 83 82 76 68 64 65 66 67 69 72 82 90 85 79 79 71 61 59 59
102 102 102 101 101 101 100 100 100 100 102 102 101 102 103 101 97 93 88 81 73 65 60 57 55 54 55 55 56 58 62 70 83 95 100 99 95 86 80 81 86 88 84 80 78 77 73 65 60 60 60 60 61 64 72 81 84 84 84 80 78 78 75
102 102 101 101 101 100 100 100 100 101 102 101 101 103 102 98 92 85 78 70 64 60 58 57 57 56 55 56 58 62 67 77 92 102 103 101 95 87 85 89 91 90 87 82 76 74 70 62 57 57 58 58 59 65 73 80 83 85 88 90 93 95 94
102 101 101 101 100 100 100 101 101 101 102 102 103 101 96 89 80 72 66 61 60 59 58 57 57 56 56 57 60 64 72 85 99 104 103 103 101 97 96 99 99 96 90 80 74 73 69 60 54 53 55 59 62 69 79 86 87 88 91 93 96 99 98
101 100 100 100 100 100 101 101 101 102 103 102 99 91 81 72 65 60 58 59 60 59 58 57 56 56 57 60 64 69 79 92 102 104 104 105 105 103 102 101 101 100 94 88 85 81 71 59 51 50 57 65 70 77 87 93 92 91 89 88 89 93 95
101 101 100 100 101 101 101 102 102 101 98 92 82 72 64 60 57 55 55 57 58 58 56 55 55 57 60 64 69 77 89 99 103 103 103 103 101 101 103 103 102 101 99 99 99 89 72 57 50 50 60 71 77 82 90 94 93 92 90 88 88 90 92
100 101 101 101 101 101 101 98 95 89 81 72 64 59 56 55 55 54 55 56 57 57 55 55 57 60 64 70 78 87 94 98 99 98 99 100 101 102 104 105 103 102 101 103 105 95 75 60 53 55 65 76 80 79 80 82 83 84 84 84 85 86 86
102 102 102 100 98 96 93 87 82 76 69 63 59 56 55 54 54 55 55 55 57 57 58 60 63 67 73 81 89 94 95 95 94 93 93 96 101 105 105 104 103 102 102 106 108 100 86 76 74 76 80 83 82 78 76 77 79 81 81 79 79 79 78
100 98 96 93 90 87 84 79 75 71 66 62 59 56 55 54 55 56 57 59 61 63 66 69 73 79 86 90 93 94 94 94 95 94 94 98 103 105 103 102 103 104 104 105 101 94 87 85 88 92 94 92 89 87 86 85 86 88 88 85 83 79 74
90 89 88 84 80 77 75 72 69 64 60 58 57 57 58 59 61 64 66 69 73 77 82 86 90 92 94 93 92 92 95 98 99 99 99 102 105 105 104 104 105 102 94 88 87 85 81 80 84 91 97 98 98 96 94 93 95 94 92 92 90 82 74
77 76 74 71 68 65 61 59 59 59 59 58 58 59 62 67 75 80 83 86 91 93 94 95 95 94 94 94 95 96 98 100 100 99 99 98 98 97 96 95 95 91 82 77 78 79 77 75 79 85 91 96 99 98 97 98 98 96 95 96 93 85 79
62 61 58 55 54 54 54 54 57 60 61 59 58 57 58 60 63 66 68 73 80 83 80 78 78 79 81 84 85 85 85 85 85 85 84 83 83 84 84 83 83 83 82 83 84 84 81 80 81 83 87 94 96 94 94 95 95 94 95 94 93 91 88
56 54 54 50 46 45 44 45 47 50 51 51 52 53 53 52 52 54 56 55 55 56 56 58 61 63 65 66 66 64 63 65 67 68 68 69 71 73 76 78 79 80 85 91 92 91 90 89 87 86 87 91 94 94 93 93 93 94 93 92 95 98 95
45 45 46 45 42 40 37 36 35 35 36 38 39 40 42 42 45 54 61 62 60 59 58 56 56 55 55 57 58 57 58 60 62 63 64 65 67 67 67 71 74 78 84 88 89 90 91 90 90 89 88 88 91 95 97 97 96 95 95 96 100 101 99
34 34 34 35 36 37 37 36 37 36 35 36 37 37 38 39 41 47 53 57 60 62 63 63 65 65 64 63 61 60 61 63 63 63 64 64 65 65 66 69 73 77 80 81 83 87 91 94 95 96 94 90 88 89 93 99 101 101 100 102 104 104 102
32 32 33 34 35 36 37 38 38 39 39 41 43 45 48 51 53 55 60 65 67 68 69 73 78 82 85 86 84 80 76 73 71 71 70 69 68 69 71 73 77 79 81 83 87 90 93 95 97 97 97 94 89 84 85 91 100 104 105 105 104 104 103
32 33 34 34 35 36 38 39 40 42 45 49 52 57 61 64 65 68 76 85 90 91 91 91 92 95 99 102 103 102 99 95 92 90 89 87 86 88 88 87 87 88 89 92 96 98 98 100 101 100 99 98 95 90 85 87 95 103 105 104 103 102 102
31 34 35 37 40 40 41 42 45 47 51 55 61 68 74 76 78 81 85 91 96 101 103 104 104 105 105 104 103 103 102 102 101 100 100 100 99 100 100 98 97 98 98 99 101 102 102 102 102 102 102 102 102 101 99 96 97 99 100 101 102 102 102

ECMWFFLT1_700_rhum_123.txt.gz
RH
53 53 54 55 55 54 53 48 41 36 36 40 42 41 38 37 40 46 54 64 72 78 84 89 93 94 97 100 100 100 100 100 100 100 100 100 100 100 99 95 90 83 75 71 67 64 63 63 61 60 58 53 46 41 38 34 31 29 25 22 19 17 16
57 58 59 59 59 59 56 51 42 35 32 32 33 36 39 47 56 63 69 76 81 86 91 95 98 100 100 100 100 100 100 100 100 100 100 100 100 100 99 97 92 85 77 72 69 68 65 64 63 61 56 50 43 39 38 35 31 28 24 20 18 16 15
62 64 64 64 64 64 61 54 45 37 34 35 39 45 53 61 68 72 76 82 88 94 98 98 100 101 100 100 100 100 100 100 100 100 100 100 100 100 99 99 95 87 79 74 72 70 67 66 64 59 52 46 41 38 37 33 29 25 22 20 18 17 16
67 68 68 70 71 71 69 64 55 47 45 47 52 59 66 72 76 80 86 92 97 99 99 99 100 101 100 100 100 99 100 100 100 100 100 100 100 100 100 99 95 87 81 77 74 71 69 67 62 55 48 44 41 38 35 31 26 24 22 20 20 19 20
70 72 74 76 78 80 80 76 68 62 61 62 66 72 78 82 86 90 95 99 100 100 99 99 100 100 100 100 100 100 100 100 100 100 100 100 100 100 100 99 94 87 83 80 76 73 70 65 58 51 46 44 42 39 35 30 26 25 24 22 22 23 25
75 77 81 84 87 88 87 83 78 75 76 77 81 85 88 92 95 98 100 101 101 100 100 100 99 100 100 100 100 100 100 100 100 100 100 100 100 100 100 97 92 87 85 82 77 72 66 60 53 48 46 45 43 39 33 30 27 25 26 26 25 26 30
81 85 89 91 92 92 89 87 85 85 87 89 91 94 97 99 100 100 100 100 100 100 100 100 100 100 100 100 100 100 100 100 100 100 101 100 100 101 99 95 92 89 86 81 74 68 61 55 50 47 46 45 45 40 34 33 31 26 27 31 31 31 36
89 93 95 96 96 95 94 94 93 94 96 97 99 100 100 100 100 100 100 100 100 100 100 100 100 100 100 100 100 100 100 100 100 100 100 100 100 100 97 94 93 90 83 76 69 62 56 52 50 48 46 46 46 42 39 41 38 29 29 36 37 36 41
97 98 98 98 99 99 99 100 99 99 100 100 100 100 100 100 100 100 100 100 100 100 100 100 100 100 100 100 100 100 100 100 100 100 100 100 100 98 96 96 93 86 77 68 62 57 54 52 51 49 47 46 46 47 47 47 44 36 35 42 41 38 43
100 100 100 100 100 100 101 101 100 100 100 100 100 100 100 100 100 100 100 100 100 100 100 100 100 100 100 100 100 100 100 100 100 100 100 101 99 98 98 95 88 78 69 63 58 55 54 54 51 49 50 48 48 53 53 51 50 46 44 46 43 39 44
100 100 100 100 100 100 100 100 100 100 100 100 100 100 100 100 100 100 100 100 100 100 100 100 100 100 100 100 100 100 100 100 100 100 101 99 98 99 97 90 80 71 64 59 56 55 55 55 51 50 53 53 53 56 57 55 54 51 48 48 46 44 46
100 100 100 100 100 100 100 100 100 100 100 100 100 100 100 100 100 100 100 100 100 100 100 100 100 100 100 100 100 100 100 100 100 100 100 99 99 98 92 82 73 65 60 57 56 57 56 54 53 54 57 59 61 61 60 57 55 54 52 52 51 48 47
100 100 100 100 100 100 100 100 100 100 100 100 100 100 100 99 100 101 100 100 100 100 100 100 100 100 100 100 100 100 100 100 100 101 100 100 99 93 84 75 67 61 59 58 58 58 55 55 59 59 61 67 69 66 62 58 56 57 58 56 53 50 47
100 100 100 100 100 100 100 100 100 100 100 100 100 101 100 96 97 101 102 101 101 101 100 100 100 100 100 100 100 100 100 100 100 101 101 99 94 85 76 68 62 59 59 59 60 59 56 59 67 68 68 72 73 68 64 61 59 60 61 59 55 50 46
100 100 100 100 100 100 100 100 100 100 100 100 99 101 100 94 92 98 103 102 101 101 100 100 100 100 100 100 100 100 101 101 101 101 99 94 85 77 69 62 59 60 62 62 62 60 58 64 73 77 75 75 75 71 67 65 65 65 65 61 54 49 44
101 100 100 100 100 100 100 100 100 100 100 100 100 100 101 96 91 93 98 100 101 102 101 100 100 100 100 100 100 101 101 102 103 99 93 85 76 69 63 60 60 62 63 64 65 66 69 74 79 80 77 76 76 72 68 70 71 68 66 60 54 48 42
100 100 100 100 100 100 100 100 100 100 100 100 100 100 100 98 94 92 94 96 100 101 101 101 101 100 100 101 101 102 102 102 100 92 83 76 69 64 61 60 62 64 64 66 71 77 85 88 86 84 81 80 78 72 71 72 67 62 63 61 55 47 40
100 100 100 100 100 100 100 100 100 100 100 100 100 100 100 100 98 96 95 96 99 101 101 101 101 101 101 102 102 102 102 98 88 79 73 68 64 62 61 61 63 65 66 71 79 88 95 95 91 90 89 89 88 87 88 84 69 63 68 66 55 46 42
100 100 100 100 100 100 100 100 100 100 100 100 100 100 100 100 99 98 98 98 99 100 100 101 102 102 103 103 103 101 95 85 74 69 67 64 62 61 60 61 63 65 69 76 84 92 97 95 93 93 92 90 87 87 93 93 83 75 73 67 56 50 49
100 100 100 100 100 100 100 100 100 100 100 100 100 100 100 100 100 100 100 100 99 100 101 101 101 102 103 103 99 91 80 70 64 62 62 61 61 61 60 62 65 67 71 77 82 87 90 88 89 92 91 87 82 79 82 88 88 82 75 68 60 55 57
100 100 100 100 100 100 100 100 100 100 100 100 100 100 100 99 100 100 100 101 101 102 102 102 102 102 101 96 86 75 66 62 60 60 60 61 61 61 62 65 65 66 71 78 82 83 81 78 80 85 86 84 81 78 79 83 85 80 74 70 67 67 71
100 100 100 100 100 100 100 100 100 100 100 100 100 100 100 101 100 100 101 100 101 101 102 102 101 97 89 79 69 62 60 59 58 60 63 65 66 67 70 74 75 76 80 85 83 79 76 74 76 82 84 83 82 81 83 86 84 78 72 71 73 78 84
101 100 100 100 100 100 100 100 100 100 100 100 100 99 99 100 99 100 101 100 99 98 98 95 90 82 72 65 60 59 57 57 58 61 65 68 71 74 80 88 94 94 92 89 87 85 84 82 82 84 85 84 84 87 92 95 91 81 74 73 77 82 88
102 101 101 102 102 100 100 100 100 100 100 100 101 101 101 102 101 101 101 98 93 89 85 81 75 68 63 60 58 57 57 57 59 61 64 68 72 78 83 87 91 94 95 96 97 97 93 88 87 88 85 82 86 94 101 104 97 82 72 71 77 84 87
102 101 101 102 101 100 101 101 100 100 100 99 99 98 96 95 93 90 88 84 79 75 71 69 66 63 60 59 58 57 58 59 61 62 64 67 72 78 80 82 87 95 101 104 103 101 98 94 90 89 86 83 87 95 100 103 97 85 77 79 86 93 93
95 95 94 93 93 93 94 93 91 91 91 89 87 85 82 79 76 74 72 69 68 65 63 62 60 59 58 58 58 59 60 60 62 64 65 68 72 77 82 87 95 102 103 103 102 102 102 99 95 91 88 85 84 86 89 92 90 83 79 83 93 101 100
79 79 77 76 75 75 75 75 74 73 72 72 71 70 69 67 65 64 63 62 62 61 60 59 58 58 60 60 61 63 65 66 68 71 74 77 81 86 92 97 102 104 103 102 102 101 101 100 100 98 93 86 82 82 82 82 81 77 72 73 83 91 92
59 60 59 56 55 56 55 56 59 60 59 59 59 60 62 63 64 65 65 66 66 66 66 67 67 67 69 71 73 74 76 78 80 82 86 90 94 97 101 103 102 102 102 102 101 101 101 100 100 101 99 95 89 83 78 76 76 73 67 67 72 75 73
45 46 45 42 41 41 39 39 44 47 48 47 49 51 52 55 60 64 67 70 73 74 74 73 73 73 74 78 81 82 83 85 88 90 93 97 100 102 104 104 102 101 102 101 101 101 101 100 101 102 103 101 94 84 77 75 73 70 68 68 70 67 62
33 33 31 29 29 29 28 28 30 33 35 38 40 41 41 41 45 48 49 51 57 60 59 56 56 56 57 61 66 68 70 73 77 81 84 87 90 94 98 100 101 102 103 103 103 103 103 103 105 105 104 100 93 85 81 79 76 74 74 73 71 67 64
27 26 26 26 26 26 27 27 27 28 30 33 35 37 38 38 38 39 41 42 44 44 41 41 42 43 44 49 53 54 56 58 61 64 66 69 73 78 82 86 88 91 95 100 103 105 105 104 104 105 105 102 97 91 87 84 80 78 75 73 74 72 69
27 27 29 29 30 30 30 31 32 32 33 35 37 38 39 40 42 46 51 56 57 53 47 44 45 45 46 49 52 53 57 61 64 66 66 66 67 67 70 73 75 80 89 96 99 101 102 102 102 103 103 104 104 101 97 92 87 83 80 78 79 77 72
29 30 31 32 33 34 34 34 35 36 38 40 41 43 45 47 49 52 57 63 68 70 70 71 71 70 70 70 69 67 68 70 73 76 78 78 76 73 71 71 75 81 88 92 93 95 96 98 101 103 102 104 105 104 103 101 97 93 91 88 86 84 83
34 34 34 35 37 39 40 41 42 44 47 50 54 58 60 58 55 55 60 68 74 78 82 88 91 93 95 97 95 92 90 87 85 84 85 85 85 85 83 83 84 87 88 88 89 93 94 96 99 102 103 104 105 104 104 104 103 101 99 97 96 95 96
34 37 38 38 38 37 37 37 38 40 44 48 53 59 60 56 55 58 65 75 84 89 91 94 97 100 103 104 103 101 101 100 97 95 93 90 89 88 88 88 90 91 92 93 95 96 98 100 101 103 105 106 107 107 105 103 102 102 100 100 101 101 102
30 32 34 35 36 38 40 43 47 50 53 56 60 62 62 63 67 71 74 80 89 98 101 101 101 101 102 102 102 102 101 101 101 100 100 99 97 95 92 90 89 89 90 93 95 96 98 101 102 104 106 107 106 107 105 102 102 102 100 101 105 106 105